Date,TemperatureHighF,TemperatureAvgF,TemperatureLowF,DewpointHighF,DewpointAvgF,DewpointLowF,HumidityHigh,HumidityAvg,HumidityLow,PressureMaxIn,PressureMinIn,WindSpeedMaxMPH,WindSpeedAvgMPH,GustSpeedMaxMPH,PrecipitationSumIn
2013-3-1,46.6,32.7,21.4,27.5,21.5,14.4,78,64,46,30.17,30.09,14,2,14,0.00
2013-3-2,51.4,38.0,24.9,32.8,27.6,20.0,89,68,41,30.14,29.78,29,4,29,0.00
2013-3-3,58.9,44.4,29.0,34.0,25.3,8.7,86,49,25,29.78,29.46,46,15,46,0.00
2013-3-4,30.1,24.7,13.2,15.9,10.2,4.5,73,54,40,30.13,29.75,42,14,42,0.00
2013-3-5,38.2,23.7,10.1,16.2,11.1,4.7,86,61,33,30.12,29.89,23,4,23,0.00
2013-3-6,51.1,34.1,15.4,31.1,19.4,6.3,79,57,33,29.89,29.59,33,5,33,0.00
2013-3-7,51.4,42.5,32.4,24.5,15.7,10.4,49,34,22,29.87,29.68,32,10,33,0.00
2013-3-8,47.1,38.0,28.0,29.3,23.4,10.9,71,56,42,29.85,29.71,27,7,27,0.00
2013-3-9,43.6,35.9,24.1,26.9,19.7,10.6,76,53,35,30.07,29.76,34,12,34,0.00
2013-3-10,47.9,35.3,20.5,22.1,18.0,10.9,70,51,34,30.08,29.87,31,5,31,0.00
2013-3-11,46.4,38.0,25.9,26.7,22.8,17.9,78,55,36,30.12,29.84,42,9,42,0.00
2013-3-12,45.0,30.1,14.6,21.4,17.9,10.7,90,63,38,30.14,29.96,21,6,22,0.00
2013-3-13,62.5,44.7,26.4,30.1,24.0,16.2,70,47,27,30.04,29.96,33,9,33,0.00
2013-3-14,65.8,54.5,36.4,34.1,28.7,20.5,69,39,25,30.06,29.88,30,7,30,0.00
2013-3-15,65.8,56.2,43.0,29.2,23.9,18.6,52,29,18,29.89,29.78,40,11,40,0.00
2013-3-16,52.3,43.6,33.7,33.6,28.8,20.9,78,57,39,29.90,29.59,16,4,16,0.00
2013-3-17,39.7,34.4,26.0,31.8,21.3,9.0,93,61,30,29.77,29.40,40,10,40,0.00
2013-3-18,40.9,30.9,18.5,22.0,11.3,2.3,72,47,22,29.83,29.73,40,11,40,0.00
2013-3-19,39.9,31.7,21.3,22.0,14.9,2.8,81,52,32,30.08,29.83,22,4,31,0.00
2013-3-20,53.8,35.8,20.3,28.1,17.0,2.7,65,48,27,30.07,29.53,20,3,24,0.00
2013-3-21,43.6,35.8,28.1,30.9,23.4,14.2,94,62,33,29.78,29.47,35,10,35,0.00
2013-3-22,34.6,27.4,18.0,20.6,14.2,5.9,86,59,31,29.94,29.74,32,10,32,0.00
2013-3-23,30.1,22.5,14.5,15.9,11.3,3.8,93,64,33,30.06,29.94,22,6,22,0.00
2013-3-24,33.0,22.1,11.4,11.5,7.3,-2.8,77,55,32,30.08,30.03,31,9,31,0.00
2013-3-25,42.7,26.9,10.1,12.4,6.2,-1.6,71,44,23,30.08,29.91,27,5,27,0.00
2013-3-26,50.3,35.1,20.2,18.5,11.0,-0.7,51,38,27,29.92,29.80,16,2,16,0.00
2013-3-27,55.7,42.2,22.2,28.1,18.4,6.0,63,40,27,29.91,29.84,22,3,22,0.00
2013-3-28,61.2,47.8,32.9,28.0,24.1,14.2,63,41,26,29.98,29.89,19,5,19,0.00
2013-3-29,58.9,47.4,38.0,40.2,28.6,16.3,91,50,36,30.05,29.92,33,4,33,0.08
2013-3-30,56.1,46.0,35.5,39.9,31.8,22.7,92,62,28,30.06,29.98,28,8,28,0.00
2013-3-31,59.3,44.6,30.1,29.2,25.7,22.4,78,51,29,29.98,29.90,24,6,31,0.00